Location: Dalton
(34.7700°N, 84.9700°W)
Time: 07:09:10
(UTC-05:00)

Hubble Space Telescope - Pass Details

Date: 09 October 2017
Orbit: 537 x 541 km, 28.5° (Epoch: 16 December)

Event Time Altitude Azimuth Distance (km) Brightness Sun altitude
Exits shadow 05:18:10 16° 129° (SE) 1,432 3.3 -29.9°
Drops below altitude 10° 05:19:13 10° 121° (ESE) 1,787 3.9 -29.7°
Sets 05:21:38 0° 111° (ESE) 2,678 5.1 -29.2°
